Regional Weather Roundup
Issued by NWS

Home | Current Version | Previous Version | Graphics & Text | Print | Product List | Glossary Off
Versions: 1 2 3 4 5 6 7 8 9 10 11 12 13 14 15 16 17 18 19 20 21 22 23 24 25 26 27 28 29 30 31 32 33 34 35 36 37 38 39 40 41 42 43 44 45 46 47 48 49 50

000
ASUS43 KLSX 270807
RWRMO

WEATHER SUMMARY FOR MISSOURI
NATIONAL WEATHER SERVICE SPRINGFIELD MO
300 AM CDT SAT AUG 27 2016

NOTE: "FAIR" INDICATES FEW OR NO CLOUDS BELOW 12,000 FEET WITH NO
       SIGNIFICANT WEATHER AND/OR OBSTRUCTIONS TO VISIBILITY.
       CURRENT SKY AND/OR WEATHER CONDITIONS ARE NOT AVAILABLE FOR
       CHILLICOTHE AND FARMINGTON.

MOZ001>031-035>038-043-044-053-054-270900-
...NORTHERN AND WESTERN MISSOURI...

CITY           SKY/WX    TMP DP  RH WIND       PRES   REMARKS
KANSAS CTY INT PTCLDY    67  66  97 S5        30.01F
KANSAS C DTWN  MOCLDY    69  67  93 CALM      30.00F
LEE`S SUMMIT   PTCLDY    68  67  96 S3        30.02F
ST JOSEPH      CLOUDY    69  68  96 S5        30.00F FOG
KIRKSVILLE     PTCLDY    66  65  96 S8        30.02S

$$
MOZ066>068-077>081-088>096-101>105-270900-
...SOUTHWEST MISSOURI...

CITY           SKY/WX    TMP DP  RH WIND       PRES   REMARKS
SPRINGFIELD    CLOUDY    74  70  87 S6        30.05S
JOPLIN         PTCLDY    68  68 100 E3        30.03S
BRANSON        PTCLDY    72  70  94 CALM      30.07S

$$
MOZ032>034-039>042-045>050-055>058-069>072-270900-
...CENTRAL MISSOURI...

CITY           SKY/WX    TMP DP  RH WIND       PRES   REMARKS
COLUMBIA       PTCLDY    71  70  96 CALM      30.04R
JEFFERSON CITY LGT RAIN  75  71  87 VRB3      30.03S
ROLLA          CLOUDY    73  70  90 SE6       30.05F
SEDALIA        FOG       72  70  93 CALM      30.04F VSB 1/4
WHITEMAN AFB   PTCLDY    70  70 100 NW6       30.02S
OSAGE BEACH    PTCLDY    71  70  96 CALM      30.06R

$$
MOZ051-052-059>065-270900-
...EAST CENTRAL MISSOURI...

CITY           SKY/WX    TMP DP  RH WIND       PRES   REMARKS
ST LOUIS INTL  CLOUDY    79  71  76 SE7       30.06S
SPIRIT OF STL  CLOUDY    76  74  93 SE6       30.04S
ST CHARLES     MOCLDY    75  74  96 SE7       30.03F

$$
MOZ072>076-082>087-097>100-106>115-270900-
...SOUTH CENTRAL AND SOUTHEAST MISSOURI...

CITY           SKY/WX    TMP DP  RH WIND       PRES   REMARKS
CAPE GIRARDEAU CLOUDY    70  69  97 CALM      30.04S
FARMINGTON     CLOUDY    70  68  93 S3        30.08S
POPLAR BLUFF   CLOUDY    71  70  96 NW3       30.04F
WEST PLAINS    CLOUDY    69  66  90 CALM      30.11R

$$



USA.gov is the U.S. government's official web portal to all federal, state and local government web resources and services.